Dewpoint
65 70 71 71 71 71 72 72 72 71 71 70 70 71 71 72 72 71 71 71 70 70 69 69 70 70 69 68 70 70 70 69 68 67 67 66 67 68 68 68 67 67 69
67 70 71 71 71 71 71 72 72 72 71 71 71 71 72 72 72 71 71 71 70 68 67 68 69 69 68 69 70 70 70 69 68 67 67 67 66 67 68 68 67 68 68
68 70 70 71 71 71 71 72 72 72 72 71 71 72 72 72 71 71 71 70 69 68 67 66 67 68 68 70 70 70 69 68 68 67 65 64 65 66 67 68 68 68 68
68 69 69 71 71 71 71 71 72 72 72 72 72 72 71 71 71 71 70 70 69 68 66 66 65 67 68 70 70 70 69 68 68 67 63 63 63 64 64 67 67 67 67
67 69 69 71 71 71 71 71 72 72 72 72 72 71 71 71 71 71 70 69 69 67 66 65 64 65 66 68 69 69 68 68 67 65 64 63 63 65 65 64 66 66 66
66 68 71 70 70 71 71 70 71 71 71 71 71 71 71 71 71 70 70 69 68 67 66 65 63 65 66 67 69 68 68 67 65 63 63 63 62 64 64 64 63 66 66
67 68 71 70 70 71 71 70 70 71 71 71 71 71 71 71 70 70 69 69 68 67 66 64 64 68 67 67 68 67 66 65 63 63 62 62 64 64 64 65 65 66 65
68 68 69 71 70 70 71 71 70 70 70 70 70 70 71 70 70 70 69 69 68 67 65 63 66 68 67 68 67 66 65 64 63 63 62 63 64 64 64 64 65 64 64
68 69 69 70 69 69 70 71 70 70 69 70 70 70 70 70 70 69 68 68 67 65 63 62 67 67 66 66 66 65 64 64 63 63 62 62 64 63 63 63 63 63 63
67 68 69 69 69 69 69 70 70 69 69 69 70 70 69 70 69 69 68 68 66 63 62 62 65 66 66 66 65 64 64 64 62 62 61 62 63 62 62 62 62 61 60
66 67 68 68 69 69 69 69 70 69 69 69 70 70 69 69 69 68 67 67 65 62 61 61 63 66 65 65 64 63 63 62 61 60 60 61 61 61 61 60 59 58 57
64 65 67 67 67 68 68 69 69 69 69 68 69 69 69 69 68 68 67 66 64 62 61 62 63 65 65 64 63 62 61 61 60 59 58 59 61 60 58 57 56 54 54
64 65 65 66 67 67 68 69 69 69 69 68 68 68 69 68 68 67 67 66 64 62 58 61 64 62 63 62 61 61 60 60 59 58 58 60 59 58 56 55 53 53 54
64 65 65 66 66 67 67 68 68 69 69 68 68 68 67 66 66 66 66 65 64 62 58 59 62 62 62 61 60 60 60 58 57 56 57 59 59 56 56 55 54 54 54
63 64 65 65 65 66 66 67 67 68 68 68 68 68 68 66 65 65 65 64 64 61 59 60 60 60 60 59 59 59 58 57 56 55 55 57 58 57 56 55 55 54 54
62 63 65 65 65 66 65 65 66 67 68 68 68 68 67 66 65 65 64 63 62 60 59 59 59 59 58 59 58 58 57 56 55 55 54 56 58 57 56 55 55 54 53
53 56 64 66 66 66 65 65 65 66 67 68 68 68 67 66 65 64 63 62 61 59 58 59 59 59 57 57 57 56 55 55 55 54 53 53 56 57 56 55 54 53 53
60 57 56 65 66 66 65 65 65 65 67 67 67 67 66 65 65 64 63 61 60 57 56 57 57 56 55 55 55 55 54 54 54 54 54 53 55 55 55 54 54 53 53
60 57 49 63 65 66 66 65 65 65 66 66 66 66 65 65 65 63 62 61 59 56 54 56 55 55 53 53 53 53 53 53 53 53 54 54 54 53 52 53 53 52 53
56 61 61 64 65 66 66 66 66 65 65 66 65 65 64 64 64 62 62 61 57 54 54 55 54 54 53 51 50 48 50 51 52 53 53 53 54 52 51 50 50 50 52
33 52 56 59 60 63 65 64 64 64 64 64 65 64 64 63 63 62 61 59 57 55 54 54 54 52 50 48 46 45 44 45 47 50 51 51 51 52 51 49 47 49 52
27 31 50 54 52 54 57 58 59 61 60 61 63 63 63 63 62 61 59 57 56 55 55 54 53 52 51 50 48 44 42 43 43 44 46 47 47 49 50 49 49 49 50
33 33 32 44 57 57 54 52 53 55 57 58 58 59 61 61 61 61 60 57 55 55 53 53 52 51 48 49 49 45 41 41 40 42 42 43 44 45 47 48 49 49 50
33 35 36 37 38 50 57 55 49 46 47 53 56 57 59 60 60 60 59 57 55 55 53 52 52 51 49 47 48 48 47 42 41 38 40 41 41 42 44 46 47 48 48
31 33 34 35 36 39 41 54 55 53 54 56 56 56 56 58 59 59 59 59 57 56 55 53 53 51 51 49 48 45 44 44 43 40 36 37 40 40 41 42 44 45 45
28 32 33 34 34 37 40 42 48 53 53 53 53 53 54 55 56 57 58 58 57 56 54 54 53 52 50 50 49 47 45 44 42 42 40 38 39 37 37 39 40 41 42
Wind_Speed
11 20 21 20 19 19 18 17 20 24 27 25 25 25 24 23 23 21 20 19 17 18 20 20 18 18 19 20 20 19 20 21 20 20 19 18 18 18 18 16 15 17 16
19 21 21 19 18 18 16 17 19 23 26 26 25 26 26 24 23 23 21 19 18 18 18 19 18 18 19 19 18 19 20 21 21 21 20 19 19 18 17 16 16 18 18
22 22 24 21 19 21 19 18 20 23 25 25 25 25 25 24 24 22 22 21 19 19 18 17 18 19 19 18 18 18 20 20 21 21 21 18 18 19 19 17 17 18 18
21 23 23 24 22 21 22 20 21 24 25 26 26 26 25 24 23 22 22 20 18 18 18 17 17 17 18 16 18 18 17 18 20 19 18 19 19 18 18 18 19 18 18
19 21 22 24 23 22 21 21 20 22 23 25 26 26 26 25 23 23 22 21 21 20 19 17 17 17 14 15 17 18 18 18 15 15 17 17 17 18 18 17 20 17 17
20 20 22 24 25 24 23 22 21 21 22 23 25 25 25 25 24 24 23 21 21 20 19 18 17 16 16 17 17 16 16 17 16 15 15 15 16 17 17 18 18 21 22
17 18 23 24 23 23 22 21 21 21 22 22 23 23 23 24 24 24 24 24 24 23 20 18 16 14 16 19 19 19 16 13 14 13 13 14 17 18 18 18 20 22 23
13 15 18 20 23 22 22 22 22 22 21 21 22 23 23 23 22 23 24 24 23 22 21 20 20 21 19 18 19 19 20 15 12 13 13 13 17 17 17 17 19 22 22
9 12 15 17 19 21 21 22 23 23 23 24 24 23 22 22 21 24 24 23 23 22 22 23 23 23 23 23 21 20 19 18 16 11 12 14 16 17 17 16 19 19 21
11 14 16 17 18 18 19 23 25 25 25 23 21 22 22 21 22 22 22 21 23 23 22 22 23 24 22 24 24 22 20 18 17 16 10 13 17 17 18 18 19 19 18
12 15 16 18 17 17 18 20 21 19 20 21 20 21 21 21 22 22 22 22 19 19 21 22 22 22 21 22 23 23 23 14 17 16 13 16 15 18 19 19 18 17 17
19 21 16 18 19 18 15 16 18 17 18 20 21 21 20 19 19 21 20 20 18 18 18 20 23 24 22 18 19 20 14 16 14 14 15 18 19 19 19 18 18 18 18
19 17 20 18 18 18 18 14 13 14 14 16 20 20 19 16 16 15 15 18 18 17 15 18 23 21 19 17 18 18 17 16 13 14 18 19 20 20 21 19 17 18 18
17 21 20 22 19 20 17 16 16 17 16 17 19 20 18 16 16 16 18 17 17 16 16 16 17 19 20 19 21 20 20 18 15 14 19 20 22 21 21 20 18 19 18
17 15 18 17 20 19 21 17 18 19 19 17 18 20 18 18 20 18 17 16 17 16 17 17 17 18 18 20 20 22 22 20 20 16 18 20 21 22 21 21 20 19 19
16 17 17 21 20 19 20 21 18 18 18 15 16 18 19 17 17 16 15 15 13 14 13 13 15 17 17 18 21 22 22 22 21 20 20 20 21 23 23 21 20 18 19
14 16 21 23 23 23 22 21 19 17 17 17 15 19 21 19 18 20 17 16 14 15 12 13 13 10 13 15 19 20 19 21 21 21 22 21 21 23 23 21 21 20 18
18 18 18 20 24 25 22 19 19 18 17 17 16 15 22 22 22 20 18 15 15 17 14 11 6 10 9 8 13 15 19 20 22 22 19 21 20 20 22 22 21 19 19
17 15 12 17 22 23 22 19 18 17 17 16 16 17 19 22 23 21 19 15 13 14 19 13 12 2 10 12 4 4 10 18 18 19 21 20 23 21 19 22 21 19 18
20 19 12 6 14 14 14 14 14 14 16 16 16 16 19 19 21 20 16 16 17 19 21 20 20 17 10 9 16 8 2 10 13 16 19 19 20 21 21 23 21 19 19
24 24 22 19 20 11 8 9 13 16 14 14 13 13 16 17 16 16 15 17 19 22 24 26 23 25 19 23 16 11 9 7 10 7 14 16 19 18 20 21 19 19 18
21 21 20 19 16 14 17 11 7 3 5 4 7 7 11 15 16 18 16 19 19 17 20 23 26 23 12 25 19 18 10 1 4 4 9 14 16 16 18 19 20 20 20
25 22 20 18 14 12 11 9 10 9 9 6 3 2 3 9 14 19 19 20 21 22 25 30 30 28 20 23 25 13 10 9 7 1 3 11 15 14 15 17 18 20 20
20 19 21 19 16 14 11 9 7 6 4 1 2 4 6 7 10 13 16 19 21 20 22 26 27 26 21 28 18 9 7 12 11 8 0 4 8 15 17 15 19 19 20
19 18 18 20 20 17 16 12 8 7 3 2 3 5 6 8 10 13 13 19 20 21 22 26 27 28 24 26 21 11 8 9 8 6 9 8 4 3 9 16 18 18 17
19 19 19 18 18 18 19 17 12 11 10 8 7 7 7 6 13 9 13 16 18 19 19 23 26 29 28 29 26 22 22 22 19 14 13 14 19 5 3 9 14 14 15
Wind_Direction
170 161 156 155 149 144 141 140 142 145 142 147 149 148 148 146 141 140 138 135 135 133 134 137 135 133 132 131 128 123 123 119 114 110 106 104 98 96 94 92 106 100 97
152 159 152 154 149 141 141 142 143 142 143 149 151 149 149 148 146 145 140 136 137 138 140 142 140 137 137 133 131 125 126 119 116 112 110 103 102 101 95 92 95 99 97
152 156 158 156 155 149 149 148 146 143 147 151 151 150 150 151 151 146 140 143 146 146 147 147 143 142 140 134 128 124 123 123 120 120 122 119 108 102 100 100 99 97 99
160 160 164 160 160 158 155 156 155 149 152 152 152 153 154 153 153 147 143 146 146 147 149 147 143 144 140 136 132 127 123 119 122 131 121 121 117 113 109 107 102 100 102
165 168 168 163 162 163 163 159 159 156 157 156 156 158 156 157 157 151 148 149 151 152 152 152 148 145 139 137 135 132 130 125 126 134 122 122 118 115 110 101 103 105 100
170 174 166 166 169 168 170 166 164 164 163 162 161 161 161 162 159 152 150 153 152 155 156 153 150 143 146 146 139 131 127 127 140 127 123 120 125 118 113 107 107 94 95
174 181 177 171 171 170 173 172 172 172 169 167 164 165 165 167 163 154 156 157 159 159 154 150 145 143 152 150 142 135 129 136 138 130 131 133 125 127 123 119 109 102 98
178 182 180 174 177 177 178 179 180 180 176 172 171 170 172 170 164 157 162 161 158 155 152 150 151 151 150 147 140 136 132 132 139 136 137 129 123 120 118 110 102 102 103
177 185 185 185 187 188 187 184 184 186 184 181 179 175 174 171 164 163 167 162 158 155 160 158 153 153 156 156 143 138 134 141 143 138 139 132 125 127 120 112 110 107 106
189 195 194 193 195 194 199 194 189 188 190 187 181 177 176 173 167 165 163 162 160 165 163 159 154 154 153 148 143 140 136 144 142 141 145 132 136 131 124 119 112 107 104
202 207 205 203 200 199 202 202 198 193 193 190 183 180 175 183 179 171 177 168 166 170 166 159 155 152 149 141 140 141 149 157 151 148 146 135 142 137 125 117 113 110 107
211 210 205 206 207 208 209 208 204 204 205 202 197 192 190 186 184 179 173 167 172 183 170 160 154 151 150 154 150 147 162 158 153 150 143 144 145 134 127 122 123 121 119
217 207 206 205 207 206 208 206 206 204 201 201 200 195 192 184 174 171 168 178 182 180 174 165 156 167 169 160 162 169 160 159 153 148 143 141 139 140 135 130 130 125 121
229 217 206 207 206 206 206 206 205 204 198 198 198 191 191 185 179 177 181 183 180 182 178 177 174 171 172 166 170 165 163 159 156 151 150 146 144 145 137 131 129 125 126
247 238 226 217 214 210 210 208 208 209 206 201 194 195 187 186 190 185 189 181 184 182 179 180 175 174 165 168 171 166 165 160 156 153 152 151 146 142 138 134 132 130 125
278 254 230 220 210 214 216 216 216 212 212 201 198 195 191 193 192 191 188 188 182 179 178 176 178 176 171 170 171 170 169 158 158 155 152 158 149 142 140 138 134 132 130
294 277 244 223 214 209 213 218 214 214 209 203 202 191 188 190 190 189 197 192 176 160 171 174 175 190 166 169 172 168 167 158 158 157 155 156 152 144 137 137 135 135 136
321 298 264 233 217 212 212 217 217 211 206 206 194 191 191 184 188 195 200 193 167 145 144 159 178 161 159 154 161 165 167 159 160 158 157 156 152 143 133 133 135 136 135
344 335 288 242 228 216 215 215 217 213 205 203 195 191 191 193 190 191 192 179 170 156 151 151 128 160 118 118 61 133 171 151 161 159 157 158 155 150 144 135 135 135 138
8 10 8 284 246 235 221 217 212 214 206 207 198 200 189 193 190 186 185 174 157 157 163 154 153 141 137 136 120 94 8 135 161 160 156 154 154 155 152 145 142 145 145
18 18 24 29 25 354 235 228 221 213 212 201 205 206 202 197 198 182 175 165 165 169 173 169 165 153 146 131 110 76 33 14 104 152 158 150 147 151 153 153 151 150 147
18 15 17 27 29 51 41 9 7 24 70 86 144 187 195 191 186 193 173 172 168 166 182 180 171 164 167 174 172 140 170 244 55 85 158 148 141 143 149 154 151 150 147
15 9 9 12 14 6 31 74 53 35 13 44 14 113 203 198 197 195 185 177 179 178 181 181 182 179 182 186 177 157 149 192 158 357 113 141 145 143 142 146 149 147 144
4 1 1 360 9 2 359 355 44 96 45 91 333 339 273 212 211 199 186 178 184 185 184 184 187 186 178 181 177 175 131 132 158 177 303 132 133 147 143 145 146 146 148
354 351 348 348 346 346 349 346 332 324 331 265 232 259 309 260 231 218 206 205 195 196 188 184 187 189 186 175 190 167 148 148 150 166 164 161 117 149 144 143 147 148 152
343 338 339 339 331 334 337 328 311 296 288 278 276 266 250 257 251 235 214 208 205 188 188 188 191 187 178 188 189 187 181 185 181 170 163 181 159 167 172 136 137 144 151